Time,TemperatureF,DewpointF,PressureIn,WindDirection,WindDirectionDegrees,WindSpeedMPH,WindSpeedGustMPH,Humidity,HourlyPrecipIn,Conditions,Clouds,dailyrainin,SoftwareType,DateUTC
2013-01-15 00:01:00,37.7,36.1,30.27,NNW,337,1.0,3.0,94,0.00,,,0.01,Wunderground v.1.15,2013-01-15 05:01:00,
2013-01-15 00:05:00,37.8,36.2,30.27,NNW,337,1.0,3.0,94,0.00,,,0.01,Wunderground v.1.15,2013-01-15 05:05:00,
2013-01-15 00:11:00,37.8,36.2,30.27,NNW,337,1.0,1.0,94,0.00,,,0.01,Wunderground v.1.15,2013-01-15 05:11:00,
2013-01-15 00:15:00,37.8,36.2,30.27,NNW,337,1.0,1.0,94,0.00,,,0.01,Wunderground v.1.15,2013-01-15 05:15:00,
2013-01-15 00:20:00,37.8,36.2,30.27,NNW,337,1.0,1.0,94,0.00,,,0.01,Wunderground v.1.15,2013-01-15 05:20:00,
2013-01-15 00:26:00,37.8,36.5,30.27,NNW,337,1.0,1.0,95,0.00,,,0.01,Wunderground v.1.15,2013-01-15 05:26:00,
2013-01-15 00:36:00,37.5,36.2,30.26,NNW,337,1.0,3.0,95,0.00,,,0.02,Wunderground v.1.15,2013-01-15 05:36:00,
2013-01-15 00:46:00,37.4,36.1,30.26,NNW,337,1.0,2.0,95,0.00,,,0.02,Wunderground v.1.15,2013-01-15 05:46:00,
2013-01-15 00:51:00,37.4,36.1,30.25,NNW,337,1.0,1.0,95,0.00,,,0.02,Wunderground v.1.15,2013-01-15 05:51:00,
2013-01-15 01:06:00,37.5,36.2,30.26,NW,324,3.0,5.0,95,0.00,,,0.03,Wunderground v.1.15,2013-01-15 06:06:00,
2013-01-15 01:11:00,37.4,36.1,30.24,NW,324,3.0,5.0,95,0.00,,,0.03,Wunderground v.1.15,2013-01-15 06:11:00,
2013-01-15 01:20:00,37.3,36.0,30.25,NNW,342,3.0,3.0,95,0.00,,,0.03,Wunderground v.1.15,2013-01-15 06:20:00,
2013-01-15 01:26:00,37.3,36.0,30.25,NNW,342,3.0,3.0,95,0.00,,,0.04,Wunderground v.1.15,2013-01-15 06:26:00,
2013-01-15 01:35:00,37.0,35.7,30.25,NNW,342,2.0,4.0,95,0.00,,,0.04,Wunderground v.1.15,2013-01-15 06:35:00,
2013-01-15 01:41:00,37.1,35.8,30.25,NNW,342,3.0,5.0,95,0.00,,,0.04,Wunderground v.1.15,2013-01-15 06:41:00,
2013-01-15 01:46:00,37.1,35.8,30.25,NNW,331,4.0,7.0,95,0.00,,,0.04,Wunderground v.1.15,2013-01-15 06:46:00,
2013-01-15 01:56:00,37.0,35.7,30.26,NNW,332,5.0,7.0,95,0.00,,,0.04,Wunderground v.1.15,2013-01-15 06:56:00,
2013-01-15 02:06:00,36.8,35.5,30.26,North,360,7.0,7.0,95,0.00,,,0.04,Wunderground v.1.15,2013-01-15 07:06:00,
2013-01-15 02:11:00,36.7,35.4,30.26,North,349,6.0,6.0,95,0.00,,,0.04,Wunderground v.1.15,2013-01-15 07:11:00,
2013-01-15 02:21:00,36.7,35.4,30.25,NNW,346,6.0,6.0,95,0.00,,,0.04,Wunderground v.1.15,2013-01-15 07:21:00,
2013-01-15 02:26:00,36.5,34.9,30.24,NNW,346,4.0,6.0,94,0.00,,,0.04,Wunderground v.1.15,2013-01-15 07:26:00,
2013-01-15 02:35:00,36.5,34.9,30.23,North,10,2.0,4.0,94,0.00,,,0.04,Wunderground v.1.15,2013-01-15 07:35:00,
2013-01-15 02:40:00,36.5,34.9,30.24,East,82,2.0,4.0,94,0.00,,,0.04,Wunderground v.1.15,2013-01-15 07:40:00,
2013-01-15 02:46:00,36.5,34.9,30.25,East,82,1.0,1.0,94,0.00,,,0.04,Wunderground v.1.15,2013-01-15 07:46:00,
2013-01-15 02:55:00,36.7,35.1,30.25,East,82,0.0,0.0,94,0.00,,,0.04,Wunderground v.1.15,2013-01-15 07:55:00,
2013-01-15 03:06:00,36.8,35.5,30.26,East,82,0.0,0.0,95,0.00,,,0.04,Wunderground v.1.15,2013-01-15 08:06:00,
2013-01-15 03:16:00,36.8,35.5,30.26,East,82,0.0,0.0,95,0.00,,,0.04,Wunderground v.1.15,2013-01-15 08:16:00,
2013-01-15 03:21:00,36.8,35.5,30.26,East,82,0.0,0.0,95,0.00,,,0.04,Wunderground v.1.15,2013-01-15 08:21:00,
2013-01-15 03:26:00,36.8,35.5,30.26,East,82,0.0,0.0,95,0.00,,,0.04,Wunderground v.1.15,2013-01-15 08:26:00,
2013-01-15 03:36:00,36.8,35.5,30.26,East,82,0.0,1.0,95,0.00,,,0.04,Wunderground v.1.15,2013-01-15 08:36:00,
2013-01-15 03:41:00,37.0,35.7,30.26,East,82,1.0,1.0,95,0.00,,,0.04,Wunderground v.1.15,2013-01-15 08:41:00,
2013-01-15 03:51:00,37.0,35.7,30.25,East,82,1.0,1.0,95,0.00,,,0.04,Wunderground v.1.15,2013-01-15 08:51:00,
2013-01-15 04:01:00,37.0,35.7,30.26,West,263,2.0,2.0,95,0.00,,,0.04,Wunderground v.1.15,2013-01-15 09:01:00,
2013-01-15 04:10:00,37.0,35.4,30.26,West,263,1.0,1.0,94,0.00,,,0.04,Wunderground v.1.15,2013-01-15 09:10:00,
2013-01-15 04:16:00,37.0,35.4,30.26,West,263,1.0,1.0,94,0.00,,,0.04,Wunderground v.1.15,2013-01-15 09:16:00,
2013-01-15 04:25:00,37.0,35.4,30.25,NNW,334,0.0,1.0,94,0.00,,,0.04,Wunderground v.1.15,2013-01-15 09:25:00,
2013-01-15 04:31:00,37.1,35.5,30.25,NNW,334,0.0,1.0,94,0.00,,,0.04,Wunderground v.1.15,2013-01-15 09:31:00,
2013-01-15 04:41:00,37.1,35.5,30.25,NNW,334,0.0,0.0,94,0.00,,,0.04,Wunderground v.1.15,2013-01-15 09:41:00,
2013-01-15 04:50:00,37.1,35.5,30.25,NNW,334,0.0,0.0,94,0.00,,,0.04,Wunderground v.1.15,2013-01-15 09:50:00,
2013-01-15 04:55:00,37.1,35.5,30.25,NNW,334,0.0,1.0,94,0.00,,,0.04,Wunderground v.1.15,2013-01-15 09:55:00,
2013-01-15 05:05:00,37.1,35.5,30.25,NNW,334,1.0,2.0,94,0.00,,,0.04,Wunderground v.1.15,2013-01-15 10:05:00,
2013-01-15 05:11:00,37.1,35.5,30.25,NNW,334,1.0,1.0,94,0.00,,,0.04,Wunderground v.1.15,2013-01-15 10:11:00,
2013-01-15 05:20:00,37.1,35.5,30.25,NNW,334,1.0,1.0,94,0.00,,,0.04,Wunderground v.1.15,2013-01-15 10:20:00,
2013-01-15 05:30:00,37.0,35.4,30.25,NNW,334,2.0,2.0,94,0.00,,,0.04,Wunderground v.1.15,2013-01-15 10:30:00,
2013-01-15 05:35:00,37.0,35.7,30.25,NNW,334,1.0,2.0,95,0.00,,,0.04,Wunderground v.1.15,2013-01-15 10:35:00,
2013-01-15 05:41:00,37.0,35.4,30.25,NNW,334,0.0,0.0,94,0.00,,,0.04,Wunderground v.1.15,2013-01-15 10:41:00,
2013-01-15 05:46:00,36.8,35.2,30.25,NNW,334,1.0,1.0,94,0.00,,,0.04,Wunderground v.1.15,2013-01-15 10:46:00,
2013-01-15 05:56:00,36.8,35.2,30.26,NNW,334,1.0,2.0,94,0.00,,,0.04,Wunderground v.1.15,2013-01-15 10:56:00,
2013-01-15 06:01:00,36.8,35.2,30.26,NNW,334,2.0,2.0,94,0.00,,,0.04,Wunderground v.1.15,2013-01-15 11:01:00,
2013-01-15 06:10:00,37.0,35.4,30.27,NNW,334,1.0,1.0,94,0.00,,,0.04,Wunderground v.1.15,2013-01-15 11:10:00,
2013-01-15 06:16:00,37.0,35.4,30.27,NNW,334,1.0,2.0,94,0.00,,,0.04,Wunderground v.1.15,2013-01-15 11:16:00,
2013-01-15 06:26:00,37.0,35.4,30.27,NNW,334,1.0,2.0,94,0.00,,,0.04,Wunderground v.1.15,2013-01-15 11:26:00,
2013-01-15 06:35:00,37.0,35.4,30.28,NNW,334,1.0,1.0,94,0.00,,,0.04,Wunderground v.1.15,2013-01-15 11:35:00,
2013-01-15 06:41:00,37.1,35.5,30.28,NNW,334,0.0,0.0,94,0.00,,,0.04,Wunderground v.1.15,2013-01-15 11:41:00,
2013-01-15 06:46:00,37.1,35.5,30.28,NNW,334,0.0,0.0,94,0.00,,,0.04,Wunderground v.1.15,2013-01-15 11:46:00,
2013-01-15 06:56:00,37.1,35.5,30.29,NNW,334,0.0,1.0,94,0.00,,,0.04,Wunderground v.1.15,2013-01-15 11:56:00,
2013-01-15 07:06:00,37.0,35.4,30.29,NNW,334,1.0,1.0,94,0.00,,,0.04,Wunderground v.1.15,2013-01-15 12:06:00,
2013-01-15 07:11:00,37.1,35.5,30.29,NNW,334,1.0,2.0,94,0.00,,,0.04,Wunderground v.1.15,2013-01-15 12:11:00,
2013-01-15 07:21:00,37.0,35.4,30.29,NNW,334,2.0,2.0,94,0.00,,,0.04,Wunderground v.1.15,2013-01-15 12:21:00,
2013-01-15 07:31:00,37.1,35.5,30.29,NNW,334,2.0,2.0,94,0.00,,,0.04,Wunderground v.1.15,2013-01-15 12:31:00,
2013-01-15 07:36:00,37.1,35.5,30.30,NNW,334,1.0,2.0,94,0.00,,,0.04,Wunderground v.1.15,2013-01-15 12:36:00,
2013-01-15 07:46:00,37.4,35.8,30.31,NNW,334,1.0,3.0,94,0.00,,,0.04,Wunderground v.1.15,2013-01-15 12:46:00,
2013-01-15 07:55:00,37.3,35.7,30.31,NNW,334,2.0,2.0,94,0.00,,,0.04,Wunderground v.1.15,2013-01-15 12:55:00,
2013-01-15 08:01:00,37.3,35.7,30.31,NNW,334,1.0,1.0,94,0.00,,,0.04,Wunderground v.1.15,2013-01-15 13:01:00,
2013-01-15 08:06:00,37.3,35.7,30.32,NNW,334,1.0,1.0,94,0.00,,,0.04,Wunderground v.1.15,2013-01-15 13:06:00,
2013-01-15 08:16:00,37.5,35.7,30.32,NNW,334,1.0,1.0,93,0.00,,,0.04,Wunderground v.1.15,2013-01-15 13:16:00,
2013-01-15 08:21:00,37.5,35.7,30.33,NNW,334,1.0,1.0,93,0.00,,,0.04,Wunderground v.1.15,2013-01-15 13:21:00,
2013-01-15 08:31:00,37.5,35.4,30.33,NNW,334,0.0,1.0,92,0.00,,,0.04,Wunderground v.1.15,2013-01-15 13:31:00,
2013-01-15 08:40:00,37.0,34.6,30.33,NNW,334,1.0,1.0,91,0.00,,,0.05,Wunderground v.1.15,2013-01-15 13:40:00,
2013-01-15 08:46:00,37.2,34.8,30.33,NNW,334,1.0,1.0,91,0.00,,,0.05,Wunderground v.1.15,2013-01-15 13:46:00,
2013-01-15 08:55:00,37.2,34.5,30.33,NNE,22,2.0,7.0,90,0.00,,,0.05,Wunderground v.1.15,2013-01-15 13:55:00,
2013-01-15 09:01:00,37.2,34.3,30.32,NNE,22,3.0,5.0,89,0.00,,,0.05,Wunderground v.1.15,2013-01-15 14:01:00,
2013-01-15 09:06:00,37.0,33.8,30.33,NNE,17,3.0,5.0,88,0.00,,,0.05,Wunderground v.1.15,2013-01-15 14:06:00,
2013-01-15 09:16:00,37.3,34.1,30.34,NNE,15,2.0,6.0,88,0.00,,,0.05,Wunderground v.1.15,2013-01-15 14:16:00,
2013-01-15 09:21:00,37.2,33.7,30.34,North,9,4.0,7.0,87,0.00,,,0.05,Wunderground v.1.15,2013-01-15 14:21:00,
2013-01-15 09:31:00,37.3,33.8,30.34,NNE,13,4.0,4.0,87,0.00,,,0.05,Wunderground v.1.15,2013-01-15 14:31:00,
2013-01-15 09:41:00,37.5,33.7,30.35,North,5,3.0,5.0,86,0.00,,,0.05,Wunderground v.1.15,2013-01-15 14:41:00,
2013-01-15 09:46:00,37.5,34.0,30.35,North,5,3.0,5.0,87,0.00,,,0.05,Wunderground v.1.15,2013-01-15 14:46:00,
2013-01-15 09:56:00,37.6,34.1,30.36,NNW,339,3.0,3.0,87,0.00,,,0.05,Wunderground v.1.15,2013-01-15 14:56:00,
2013-01-15 10:01:00,37.6,34.1,30.35,North,360,3.0,5.0,87,0.00,,,0.05,Wunderground v.1.15,2013-01-15 15:01:00,
2013-01-15 10:06:00,37.8,34.3,30.35,North,360,3.0,5.0,87,0.00,,,0.05,Wunderground v.1.15,2013-01-15 15:06:00,
2013-01-15 10:11:00,37.8,34.0,30.34,North,360,2.0,2.0,86,0.00,,,0.05,Wunderground v.1.15,2013-01-15 15:11:00,
2013-01-15 10:21:00,37.8,33.7,30.34,NNW,331,4.0,7.0,85,0.00,,,0.05,Wunderground v.1.15,2013-01-15 15:21:00,
2013-01-15 10:31:00,37.9,33.5,30.34,NNE,32,6.0,9.0,84,0.00,,,0.05,Wunderground v.1.15,2013-01-15 15:31:00,
2013-01-15 10:41:00,37.9,32.6,30.35,NNW,329,5.0,5.0,81,0.00,,,0.05,Wunderground v.1.15,2013-01-15 15:41:00,
2013-01-15 10:46:00,38.1,32.5,30.35,NNW,348,4.0,5.0,80,0.00,,,0.05,Wunderground v.1.15,2013-01-15 15:46:00,
2013-01-15 10:56:00,38.1,32.5,30.34,NNE,18,3.0,6.0,80,0.00,,,0.05,Wunderground v.1.15,2013-01-15 15:56:00,
2013-01-15 11:01:00,38.2,32.6,30.34,NNE,16,4.0,5.0,80,0.00,,,0.05,Wunderground v.1.15,2013-01-15 16:01:00,
2013-01-15 11:06:00,38.2,32.6,30.32,NNE,21,4.0,5.0,80,0.00,,,0.05,Wunderground v.1.15,2013-01-15 16:06:00,
2013-01-15 11:16:00,38.2,32.9,30.33,North,5,4.0,4.0,81,0.00,,,0.05,Wunderground v.1.15,2013-01-15 16:16:00,
2013-01-15 11:26:00,38.2,32.9,30.33,NNW,329,3.0,5.0,81,0.00,,,0.05,Wunderground v.1.15,2013-01-15 16:26:00,
2013-01-15 11:35:00,38.3,32.7,30.32,North,5,3.0,7.0,80,0.00,,,0.05,Wunderground v.1.15,2013-01-15 16:35:00,
2013-01-15 11:46:00,38.3,32.7,30.32,NNW,332,5.0,5.0,80,0.00,,,0.05,Wunderground v.1.15,2013-01-15 16:46:00,
2013-01-15 11:51:00,38.2,32.3,30.31,NNW,344,4.0,5.0,79,0.00,,,0.05,Wunderground v.1.15,2013-01-15 16:51:00,
2013-01-15 12:05:00,38.2,32.3,30.30,North,360,3.0,3.0,79,0.00,,,0.05,Wunderground v.1.15,2013-01-15 17:05:00,
2013-01-15 12:10:00,38.1,31.8,30.30,North,360,3.0,5.0,78,0.00,,,0.05,Wunderground v.1.15,2013-01-15 17:10:00,
2013-01-15 12:15:00,38.1,31.8,30.30,North,360,3.0,3.0,78,0.00,,,0.05,Wunderground v.1.15,2013-01-15 17:15:00,
2013-01-15 12:21:00,38.1,31.8,30.29,North,360,3.0,5.0,78,0.00,,,0.05,Wunderground v.1.15,2013-01-15 17:21:00,
2013-01-15 12:31:00,38.1,31.2,30.28,NNE,18,4.0,5.0,76,0.00,,,0.05,Wunderground v.1.15,2013-01-15 17:31:00,
2013-01-15 12:36:00,37.9,31.0,30.29,NW,326,5.0,6.0,76,0.00,,,0.05,Wunderground v.1.15,2013-01-15 17:36:00,
2013-01-15 12:46:00,38.1,30.9,30.28,North,5,4.0,4.0,75,0.00,,,0.05,Wunderground v.1.15,2013-01-15 17:46:00,
2013-01-15 12:56:00,38.3,31.4,30.28,North,355,3.0,3.0,76,0.00,,,0.05,Wunderground v.1.15,2013-01-15 17:56:00,
2013-01-15 13:06:00,38.3,31.4,30.27,NE,35,4.0,6.0,76,0.00,,,0.05,Wunderground v.1.15,2013-01-15 18:06:00,
2013-01-15 13:16:00,38.3,31.4,30.25,North,5,4.0,6.0,76,0.00,,,0.05,Wunderground v.1.15,2013-01-15 18:16:00,
2013-01-15 13:26:00,38.3,31.4,30.25,North,5,2.0,3.0,76,0.00,,,0.05,Wunderground v.1.15,2013-01-15 18:26:00,
2013-01-15 13:36:00,38.5,31.6,30.25,NNE,12,4.0,4.0,76,0.00,,,0.05,Wunderground v.1.15,2013-01-15 18:36:00,
2013-01-15 13:46:00,38.5,31.9,30.25,NNE,20,3.0,4.0,77,0.00,,,0.05,Wunderground v.1.15,2013-01-15 18:46:00,
2013-01-15 13:56:00,38.5,31.6,30.24,NNE,33,4.0,7.0,76,0.00,,,0.05,Wunderground v.1.15,2013-01-15 18:56:00,
2013-01-15 14:01:00,38.3,31.7,30.24,North,351,6.0,7.0,77,0.00,,,0.05,Wunderground v.1.15,2013-01-15 19:01:00,
2013-01-15 14:06:00,38.3,31.4,30.25,North,360,6.0,7.0,76,0.00,,,0.05,Wunderground v.1.15,2013-01-15 19:06:00,
2013-01-15 14:16:00,38.5,31.9,30.25,NNW,331,5.0,5.0,77,0.00,,,0.05,Wunderground v.1.15,2013-01-15 19:16:00,
2013-01-15 14:26:00,38.8,31.6,30.25,NNW,329,3.0,4.0,75,0.00,,,0.05,Wunderground v.1.15,2013-01-15 19:26:00,
2013-01-15 14:35:00,38.8,31.6,30.25,NNE,14,4.0,7.0,75,0.00,,,0.05,Wunderground v.1.15,2013-01-15 19:35:00,
2013-01-15 14:41:00,38.9,31.6,30.24,NNW,347,5.0,5.0,75,0.00,,,0.05,Wunderground v.1.15,2013-01-15 19:41:00,
2013-01-15 14:51:00,39.1,31.8,30.25,North,355,5.0,9.0,75,0.00,,,0.05,Wunderground v.1.15,2013-01-15 19:51:00,
2013-01-15 14:56:00,39.1,31.5,30.25,North,5,5.0,9.0,74,0.00,,,0.05,Wunderground v.1.15,2013-01-15 19:56:00,
2013-01-15 15:06:00,38.6,31.0,30.25,NNE,19,6.0,8.0,74,0.00,,,0.05,Wunderground v.1.15,2013-01-15 20:06:00,
2013-01-15 15:16:00,38.3,30.4,30.25,North,9,7.0,9.0,73,0.00,,,0.05,Wunderground v.1.15,2013-01-15 20:16:00,
2013-01-15 15:25:00,38.2,30.3,30.26,NW,321,7.0,7.0,73,0.00,,,0.05,Wunderground v.1.15,2013-01-15 20:25:00,
2013-01-15 15:31:00,38.3,30.4,30.28,NNW,344,7.0,7.0,73,0.00,,,0.05,Wunderground v.1.15,2013-01-15 20:31:00,
2013-01-15 15:41:00,37.9,29.7,30.26,North,350,6.0,8.0,72,0.00,,,0.05,Wunderground v.1.15,2013-01-15 20:41:00,
2013-01-15 15:46:00,37.9,29.7,30.27,North,355,7.0,11.0,72,0.00,,,0.05,Wunderground v.1.15,2013-01-15 20:46:00,
2013-01-15 15:56:00,37.9,30.0,30.27,NNW,344,5.0,7.0,73,0.00,,,0.05,Wunderground v.1.15,2013-01-15 20:56:00,
2013-01-15 16:01:00,37.8,29.9,30.27,North,360,2.0,2.0,73,0.00,,,0.05,Wunderground v.1.15,2013-01-15 21:01:00,
2013-01-15 16:11:00,37.6,29.4,30.27,NNW,347,4.0,4.0,72,0.00,,,0.05,Wunderground v.1.15,2013-01-15 21:11:00,
2013-01-15 16:20:00,37.5,29.6,30.25,North,355,5.0,5.0,73,0.00,,,0.05,Wunderground v.1.15,2013-01-15 21:20:00,
2013-01-15 16:26:00,37.5,29.3,30.24,NNE,28,5.0,5.0,72,0.00,,,0.05,Wunderground v.1.15,2013-01-15 21:26:00,
2013-01-15 16:36:00,37.2,29.3,30.23,NNE,19,4.0,5.0,73,0.00,,,0.05,Wunderground v.1.15,2013-01-15 21:36:00,
2013-01-15 16:46:00,37.0,29.1,30.23,NNE,13,6.0,6.0,73,0.00,,,0.05,Wunderground v.1.15,2013-01-15 21:46:00,
2013-01-15 16:56:00,37.0,29.1,30.25,North,355,5.0,6.0,73,0.00,,,0.05,Wunderground v.1.15,2013-01-15 21:56:00,
2013-01-15 17:05:00,36.9,28.7,30.24,NNE,15,6.0,7.0,72,0.00,,,0.05,Wunderground v.1.15,2013-01-15 22:05:00,
2013-01-15 17:11:00,36.9,28.7,30.25,NNE,13,5.0,7.0,72,0.00,,,0.05,Wunderground v.1.15,2013-01-15 22:11:00,
2013-01-15 17:20:00,36.8,28.6,30.24,North,11,6.0,6.0,72,0.00,,,0.05,Wunderground v.1.15,2013-01-15 22:20:00,
2013-01-15 17:26:00,36.8,29.0,30.25,North,11,5.0,6.0,73,0.00,,,0.05,Wunderground v.1.15,2013-01-15 22:26:00,
2013-01-15 17:35:00,36.8,29.3,30.26,NNE,18,4.0,6.0,74,0.00,,,0.05,Wunderground v.1.15,2013-01-15 22:35:00,
2013-01-15 17:41:00,36.8,29.0,30.26,NNE,17,5.0,5.0,73,0.00,,,0.05,Wunderground v.1.15,2013-01-15 22:41:00,
2013-01-15 17:46:00,36.6,28.4,30.27,NNE,17,6.0,7.0,72,0.00,,,0.05,Wunderground v.1.15,2013-01-15 22:46:00,
2013-01-15 17:56:00,36.8,29.0,30.27,North,9,6.0,10.0,73,0.00,,,0.05,Wunderground v.1.15,2013-01-15 22:56:00,
2013-01-15 18:05:00,36.6,28.8,30.26,NNE,17,7.0,9.0,73,0.00,,,0.05,Wunderground v.1.15,2013-01-15 23:05:00,
2013-01-15 18:11:00,36.6,29.1,30.26,NNE,20,8.0,8.0,74,0.00,,,0.05,Wunderground v.1.15,2013-01-15 23:11:00,
2013-01-15 18:16:00,36.5,29.3,30.26,NNE,32,7.0,8.0,75,0.00,,,0.05,Wunderground v.1.15,2013-01-15 23:16:00,
2013-01-15 18:26:00,36.3,29.1,30.26,NE,34,6.0,6.0,75,0.00,,,0.05,Wunderground v.1.15,2013-01-15 23:26:00,
2013-01-15 18:36:00,36.3,29.1,30.26,NNE,21,5.0,6.0,75,0.00,,,0.05,Wunderground v.1.15,2013-01-15 23:36:00,
2013-01-15 18:46:00,36.5,29.3,30.26,NNE,22,4.0,5.0,75,0.00,,,0.05,Wunderground v.1.15,2013-01-15 23:46:00,
2013-01-15 18:56:00,36.5,29.7,30.27,NNE,22,3.0,3.0,76,0.00,,,0.05,Wunderground v.1.15,2013-01-15 23:56:00,
2013-01-15 19:01:00,36.5,29.3,30.27,North,11,2.0,2.0,75,0.00,,,0.05,Wunderground v.1.15,2013-01-16 00:01:00,
2013-01-15 19:11:00,36.5,29.7,30.27,NNE,15,3.0,4.0,76,0.00,,,0.05,Wunderground v.1.15,2013-01-16 00:11:00,
2013-01-15 19:16:00,36.3,29.5,30.27,NNE,23,3.0,4.0,76,0.00,,,0.05,Wunderground v.1.15,2013-01-16 00:16:00,
2013-01-15 19:21:00,36.2,29.4,30.26,NNE,30,4.0,6.0,76,0.00,,,0.05,Wunderground v.1.15,2013-01-16 00:21:00,
2013-01-15 19:31:00,35.9,30.0,30.25,NE,51,4.0,4.0,79,0.00,,,0.05,Wunderground v.1.15,2013-01-16 00:31:00,
2013-01-15 19:41:00,35.3,30.4,30.25,ENE,64,4.0,4.0,82,0.00,,,0.06,Wunderground v.1.15,2013-01-16 00:41:00,
2013-01-15 19:46:00,35.0,30.1,30.26,ENE,66,3.0,5.0,82,0.51,,,0.08,Wunderground v.1.15,2013-01-16 00:46:00,
2013-01-15 19:56:00,34.6,30.3,30.25,East,82,4.0,5.0,84,0.05,,,0.08,Wunderground v.1.15,2013-01-16 00:56:00,
2013-01-15 20:06:00,34.3,30.8,30.25,NE,52,3.0,5.0,87,0.00,,,0.09,Wunderground v.1.15,2013-01-16 01:06:00,
2013-01-15 20:20:00,33.9,31.3,30.25,NNE,30,4.0,4.0,90,0.05,,,0.10,Wunderground v.1.15,2013-01-16 01:20:00,
2013-01-15 20:26:00,33.7,31.1,30.25,NNE,27,3.0,7.0,90,0.05,,,0.10,Wunderground v.1.15,2013-01-16 01:26:00,
2013-01-15 20:41:00,33.4,31.1,30.25,NNE,22,2.0,5.0,91,0.10,,,0.13,Wunderground v.1.15,2013-01-16 01:41:00,
2013-01-15 20:50:00,33.3,31.2,30.24,NNE,30,4.0,5.0,92,0.11,,,0.15,Wunderground v.1.15,2013-01-16 01:50:00,
2013-01-15 20:56:00,33.1,31.0,30.24,NNE,21,4.0,5.0,92,0.11,,,0.16,Wunderground v.1.15,2013-01-16 01:56:00,
2013-01-15 21:05:00,33.0,31.2,30.24,NNE,28,4.0,8.0,93,0.06,,,0.17,Wunderground v.1.15,2013-01-16 02:05:00,
2013-01-15 21:10:00,32.8,31.0,30.24,NNE,30,4.0,8.0,93,0.06,,,0.17,Wunderground v.1.15,2013-01-16 02:10:00,
2013-01-15 21:16:00,32.8,31.0,30.23,NNE,20,4.0,4.0,93,0.08,,,0.18,Wunderground v.1.15,2013-01-16 02:16:00,
2013-01-15 21:21:00,32.7,30.9,30.23,NNE,29,4.0,4.0,93,0.07,,,0.18,Wunderground v.1.15,2013-01-16 02:21:00,
2013-01-15 21:31:00,32.4,30.9,30.23,NNE,21,3.0,5.0,94,0.05,,,0.19,Wunderground v.1.15,2013-01-16 02:31:00,
2013-01-15 21:41:00,32.7,30.9,30.23,NNE,24,5.0,5.0,93,0.60,,,0.23,Wunderground v.1.15,2013-01-16 02:41:00,
2013-01-15 21:46:00,32.6,30.8,30.23,NE,44,4.0,5.0,93,0.24,,,0.25,Wunderground v.1.15,2013-01-16 02:46:00,
2013-01-15 21:51:00,32.6,30.8,30.23,NNE,22,3.0,3.0,93,0.14,,,0.27,Wunderground v.1.15,2013-01-16 02:51:00,
2013-01-15 22:01:00,32.4,30.6,30.22,NNE,21,2.0,5.0,93,0.16,,,0.28,Wunderground v.1.15,2013-01-16 03:01:00,
2013-01-15 22:06:00,32.4,30.9,30.22,NNE,29,3.0,6.0,94,0.12,,,0.29,Wunderground v.1.15,2013-01-16 03:06:00,
2013-01-15 22:16:00,32.4,30.9,30.21,NNE,24,3.0,3.0,94,0.11,,,0.31,Wunderground v.1.15,2013-01-16 03:16:00,
2013-01-15 22:21:00,32.4,30.9,30.20,NNE,24,2.0,2.0,94,0.09,,,0.32,Wunderground v.1.15,2013-01-16 03:21:00,
2013-01-15 22:31:00,32.4,30.9,30.20,NNE,24,2.0,2.0,94,0.10,,,0.33,Wunderground v.1.15,2013-01-16 03:31:00,
2013-01-15 22:36:00,32.4,31.1,30.20,NNE,24,2.0,2.0,95,0.09,,,0.34,Wunderground v.1.15,2013-01-16 03:36:00,
2013-01-15 22:45:00,32.3,31.0,30.19,NNE,17,4.0,9.0,95,0.08,,,0.36,Wunderground v.1.15,2013-01-16 03:45:00,
2013-01-15 22:51:00,32.3,31.0,30.19,NNE,15,4.0,4.0,95,0.13,,,0.37,Wunderground v.1.15,2013-01-16 03:51:00,
2013-01-15 23:01:00,32.3,31.0,30.19,NNW,346,4.0,4.0,95,0.07,,,0.38,Wunderground v.1.15,2013-01-16 04:01:00,
2013-01-15 23:06:00,32.3,31.0,30.19,North,360,3.0,4.0,95,0.08,,,0.39,Wunderground v.1.15,2013-01-16 04:06:00,
2013-01-15 23:16:00,32.3,31.0,30.18,NNE,29,4.0,4.0,95,0.20,,,0.41,Wunderground v.1.15,2013-01-16 04:16:00,
2013-01-15 23:21:00,32.2,30.9,30.17,NNE,21,5.0,6.0,95,0.15,,,0.42,Wunderground v.1.15,2013-01-16 04:21:00,
2013-01-15 23:31:00,32.2,31.2,30.18,NNW,347,5.0,5.0,96,0.17,,,0.45,Wunderground v.1.15,2013-01-16 04:31:00,
2013-01-15 23:41:00,32.3,31.3,30.17,NNW,348,5.0,5.0,96,0.19,,,0.48,Wunderground v.1.15,2013-01-16 04:41:00,
2013-01-15 23:50:00,32.3,31.3,30.17,North,11,6.0,7.0,96,0.09,,,0.50,Wunderground v.1.15,2013-01-16 04:50:00,